Location: Unspecified
(41.9031°N, 12.4386°E)
Time: 17:53:06
(UTC+02:00)

ISS - Pass Details

Date: 26 May 2020
Orbit: 417 x 420 km, 51.6° (Epoch: 26 May)

Event Time Altitude Azimuth Distance (km) Brightness Sun altitude
Rises 23:09:22 0° 308° (NW) 2,367 1.2 -21.1°
Reaches altitude 10° 23:11:35 10° 317° (NW) 1,501 0.1 -21.3°
Maximum altitude 23:14:43 36° 26° (NNE) 688 -2.4 -21.6°
Enters shadow 23:15:06 34° 42° (NE) 706 -2.5 -21.6°
